Location: ??????????
(44.2167°N, 135.5333°E)
Time: 13:47:29
(UTC+00:00)

Cosmos 2082 Rocket - Pass Details

Date: 15 June 2025
Orbit: 830 x 854 km, 71.0° (Epoch: 15 July)

Event Time Altitude Azimuth Distance (km) Brightness Sun altitude
Rises 17:02:23 0° 335° (NNW) 3,420 5.9 -16.7°
Reaches altitude 10° 17:04:51 10° 336° (NNW) 2,484 5.1 -16.5°
Maximum altitude 17:10:34 81° 65° (ENE) 868 2.3 -16.0°
Drops below altitude 10° 17:16:17 10° 152° (SSE) 2,476 4.3 -15.5°
Sets 17:18:44 0° 154° (SSE) 3,409 5.1 -15.2°
